Погода Кемерово

Погода Кемерово : погода сейчас, прогноз погоды и архив. Всё, что Вы хотите узнать о погоде Кемерово!

Поиск расширенной информации на нашем сайте:

Другие новости

Новости СМИ2

Главная страница сайта

Новости сайта

02.10.2013

Напоминаем, что на нашем новом сайте вы можете получить высокодетализированные прогнозы погоды по пунктам России, СНГ и мира (включающие важные для авиации метеовеличины, такие как направление и скорость ветра, видимость, явления погоды, количество и форма облачности, нижняя и верхняя граница облачности), а также ознакомиться с разнообразными материалами по авиационной метеорологии и подборкой полезных ссылок на эту тему.

Сайт Метеоцентр.Азия посвящён разработке технологий оптимизации авиаметеорологического обслуживания, включая проектирование и перспективное создание нескольких автоматизированных авиаметеорологических систем:
- система выпуска высокодетальных прогностических карт явлений погоды для нижнего воздушного пространства по России и ближнему зарубежью;
- система верификации прогнозов TAF (выпускаемых синоптиками официальных АМСГ РФ и ближнего зарубежья) и AUTOTAF (выпускаемых сайтом Метеоцентр.Азия) - выявление ошибок, онлайн-сопоставление с фактической погодой METAR, автоматическое внесение коррективов в прогнозы при резком отклонении фактической погоды от прогноза, подсчёт оправдываемости прогнозов по элементам и в целом;
- система обработки, анализа и отображения авиаметеорологической информации для применения провайдерами метеорологической информации.

Рекомендуем: Натяжные потолки какие натяжные потолки купить.

Погода Кемерово - сегодня

Время (UTC), дата Ветер
(°,м/с) 
Видим.   Явления Облачность Т
(°С)
Тd
(°С)
f(%) Тe
(°С)
Pmin
(гПа)
dP
(гПа)
Po
(мм)
O2
(г/м3)
Тmin Tmax R s Состояние
почвы
12 22.03.17 300 (СЗ) 20000 м    3/0 верхняя 
[Ci fib]
+3.6 -9.1 39 +2  1034.6  0.6  762  304    +5.6       
15 22.03.17 280 (З) 20000 м    ясно 
-2.6 -9.2 60 -2  1036.5  1.5  763  311           
18 22.03.17 тихо ()   20000 м    ясно 
-6.1 -10.3 72 -6  1037  0.2  763  316           
21 22.03.17 тихо ()   20000 м    ясно 
-10.2 -12.7 82 -10  1037.5  0.2  763  321           
00 23.03.17 170 (Ю) 10 км    ясно 
-10.9 -12.3 89 -11  1038.5  0.9  764  322  -11.3      70  равномерный
мокрый или
старый снег
100% 
03 23.03.17 170 (Ю) 10 км    6/0 верхняя 
[Ci fib]
-6.4 -11.3 68 -6  1039.3  1.1  765  317  -11.6         
06 23.03.17 160 (Ю) 10 км    10/0 верхняя 
[Ci fib]
+1.4 -9.7 43 +2  1038.3  -0.4  765  307           
09 23.03.17 260 (З) 20000 м    10/0 верхняя 
[Ci fib]
+6.4 -12 25 +7  1036.9  -1  764  302           
12 23.03.17 240 (ЮЗ) 20000 м    10/1 600 м верхняя 
[Sc|Ci fib]
+4.5 -8.7 38 +5  1036.7  -0.4  764  304    +6.9       
15 23.03.17 250 (З) 20000 м    8/0 верхняя 
[Ci fib]
-3.7 -8 72 -3  1037.9  0.6  764  313           
18 23.03.17 тихо ()   20000 м    8/3 600 м верхняя 
[Sc|Ci fib]
-7.5 -10.1 82 -8  1037.6  -0.5  764  317           
21 23.03.17 тихо ()   20000 м    6/3 600 м верхняя 
[Sc|Ci fib]
-10.2 -11.8 88 -10  1037.5  -0.4  763  321           
00 24.03.17 тихо ()   10 км    8/1 600 м верхняя 
[Sc|Ci fib]
-13.8 -15.1 90 -14  1037.6  -0.1  763  325  -13.8      68  равномерный
мокрый или
старый снег
100% 
03 24.03.17 тихо ()   4000 м  дым  5/0 верхняя 
[Ci fib]
-6.8 -11.5 69 -7  1036.2  -0.8  763  316  -14.1         
06 24.03.17 210 (ЮЗ) 20000 м    8/0 верхняя 
[Ci fib]
+3.1 -10.4 36 +4  1033.3  -2.2  761  304           
09 24.03.17 220 (ЮЗ) 20000 м    6/0 верхняя 
[Ci fib]
+7.6 -11.2 25 +9  1030.3  -2.7  759  299           
12 24.03.17 тихо ()   20000 м    4/0 верхняя 
[Ci fib]
+4.8 -8.1 39 +5  1027.8  -2.5  757  301    +10.9       
15 24.03.17 230 (ЮЗ) 20000 м    3/0 верхняя 
[Ci fib]
-3.3 -9.6 62 -3  1026.3  -2.2  755  309           
18 24.03.17 160 (Ю) 20000 м    1/0 верхняя 
[Ci fib]
-4.7 -9.4 70 -4  1024  -2.2  754  310           
21 24.03.17 150 (ЮВ) 20000 м    1/1 600 м 
[Sc]
-7.1 -9.7 82 -7  1022.5  -1.8  752  312           
00 25.03.17 160 (Ю) 10 км    9/5 600 м средняя, верхняя 
[Sc|Ac trans|Ci fib]
-8.1 -10.2 85 -8  1021.1  -1.4  751  313  -8.8      67  равномерный
мокрый или
старый снег
100% 
03 25.03.17 тихо ()   10 км    10/5 600 м средняя, верхняя 
[Sc|Ac trans|Ci fib]
-4.1 -8.5 71 -4  1019.5  -1.2  750  308  -8.9         
06 25.03.17 150 (ЮВ) 10 км    10/5 600 м средняя 
[Sc|Ac trans]
+3.7 -4.6 55 +3  1017.9  -1  750  299           
09 25.03.17 190 (Ю) 10 км  слаб. ливневой дождь  10/10 630 м кучево-дожд. 
[Cb cap]
+4.7 +0.3 73 +3  1017.4  -0.5  749  297           
12 25.03.17 190 (Ю) 10 км  слаб. ливневой дождь  10/10 600 м кучево-дожд. 
[Cb cap]
+3.1 +1.2 87 +1  1016.9  -0.6  749  298    +4.8     
Время (UTC), дата Ветер
(°,м/с) 
Видим.   Явления Облачность Т
(°С)
Тd
(°С)
f(%) Тe
(°С)
Pmin
(гПа)
dP
(гПа)
Po
(мм)
O2
(г/м3)
Тmin Tmax R s Состояние
почвы

Для получения пояснительной информации подведите курсор к названию столбца.

ПОГОДА Кемерово - архив

Всё, что Вы хотите узнать о погоде Кемерово - удобно и подробно!

Выберите нужную дату (начиная с 1 января 2015* года) и нажмите кнопку "Найти".
Будут отображены архивные сводки погоды по пункту Кемерово, начиная с указанной даты.


Отображать данные в формате CSV (для использования в таблицах Excel)


Внимание! Наш архив погоды предназначен исключительно для личного некоммерческого использования в познавательных целях. Если Вам необходимы официальные справки о состоянии погоды (для производственных, юридических, коммерческих и т.п. целей), обращайтесь в органы Росгидромета.

*Примечание: данная дата относится к архиву по метеостанциям СССР (Россия, СНГ, Балтия).
Архив по метеостанциям Зарубежной Европы и Азии (кроме Китая) хранится 10 дней, по другим регионам земного шара (Китай, Африка, Америка, Австралия, Океания) - 1 день.

Кемерово - район местоположения метеостанции


Название, широта, долгота, высота метеостанции:
Кемерово (город) 55.2°ш. 86.1°д. 260 м над ур. моря [Российская Федерация]

Дополнительная информация

В oтличие oт бoльшинства пoгoдных сайтoв мы публикуем пoдрoбную метеoинфoрмацию в детальнoм прoфессиoнальнoм фoрмате.

Характеристики температуры и влажнoсти вoздуха измеряются на высoте 2 м в тени вдали oт зданий и деревьев.
Скoрoсть ветра измеряется на высoте 10 м (на урoвне рoста челoвека скoрoсть ветра ниже в 1.5-2 раза). Если метеoстанция нахoдится в гoрoде или в лесу, тo скoрoсть ветра занижена на 2-4 м/с пo сравнению с oткрытым местoм. Скoрoсть ветра над акватoриями крупных рек и oзёр, а также на вершинах хoлмoв на 2-5 м/с выше, чем в oбычных услoвиях.
Атмoсфернoе давление в разных тoчках местнoсти мoжет значительнo oтличаться oт давления на метеoстанции, в зависимoсти oт услoвий рельефа (при пoдъёме на 10 м давление пoнижается примернo на 1 мм рт.ст.).